Flag for Bermuda Weather past 2 weeks in Hamilton, Bermuda

Now
72 °F

Scattered showers. Passing clouds.


Feels Like: 71 °F
Forecast: 72 / 76 °F
Wind: 18 mph from East

Location: Bermuda

Current Time: May 30, 2015 at 7:51:47 AM

Latest Report: May 30, 2015 at 6:55 AM


Visibility: N/A

Pressure: 30.15 "Hg

Humidity: 83%

Dew point: 66 °F

Location of HamiltonLocation

Historic Weather in Hamilton — Graph

°F

Hamilton temperature yesterday

Maximum temperature yesterday: 77 °F (at 11:55 AM)
Minimum temperature yesterday: 70 °F (at 2:55 AM)
Average temperature yesterday: 73 °F

Past Weeks' High & Low Weather Summary

 TemperatureHumidityPressure
High79 °F (May 21, 12:55 PM)94% (May 22, 3:55 AM)30.36 "Hg (May 22, 3:55 AM)
Low66 °F (May 16, 4:55 AM)50% (May 17, 9:55 AM)29.92 "Hg (May 19, 2:55 AM)
Average72 °F71%30.17 "Hg
* Reported May 15 5:55 AM — May 30 5:55 AM, Hamilton, Weather by CustomWeather, © 2015

Note: Actual official high and low records may vary slightly from our data, if they occured in-between our weather recording intervals... More about our weather records

Advertising

Hamilton weather history for previous 24 hours

 ConditionsComfort  
Time TempWeatherWind HumidityBarometerVisibility
5:55 AM
Sat, May 30
72 °FScattered showers. Passing clouds.17 mph88%30.15 "HgN/A
4:55 AM72 °FPartly cloudy.16 mph88%30.15 "HgN/A
3:55 AM72 °FPassing clouds.15 mph88%30.15 "HgN/A
2:55 AM72 °FPartly cloudy.17 mph88%30.15 "HgN/A
1:55 AM72 °FPassing clouds.18 mph88%30.18 "HgN/A
12:55 AM72 °FScattered showers. Partly cloudy.16 mph88%30.18 "HgN/A
11:55 PM
Fri, May 29
72 °FSprinkles. Passing clouds.18 mph88%30.18 "HgN/A
10:55 PM72 °FPassing clouds.17 mph88%30.18 "HgN/A
9:55 PM72 °FPassing clouds.20 mph88%30.15 "HgN/A
8:55 PM72 °FScattered showers. Partly sunny.20 mph88%30.15 "HgN/A
7:55 PM73 °FScattered showers. Partly sunny.20 mph83%30.15 "HgN/A
6:55 PM75 °FSprinkles. Partly sunny.20 mph78%30.15 "HgN/A
5:55 PM75 °FPartly sunny.23 mph78%30.15 "HgN/A
4:55 PM75 °FPartly sunny.22 mph78%30.15 "HgN/A
3:55 PM77 °FPartly sunny.23 mph74%30.15 "HgN/A
2:55 PM77 °FSprinkles. Partly sunny.24 mph69%30.15 "HgN/A
1:55 PM77 °FBroken clouds.26 mph74%30.15 "HgN/A
12:55 PM77 °FPartly sunny.25 mph74%30.15 "HgN/A
11:55 AM77 °FPartly sunny.22 mph74%30.15 "HgN/A
10:55 AM75 °FPartly sunny.26 mph78%30.18 "HgN/A
9:55 AM73 °FScattered showers. Partly sunny.21 mph83%30.15 "Hg6 mi
8:55 AM73 °FPartly sunny.22 mph83%30.15 "HgN/A
7:55 AM73 °FPartly sunny.21 mph83%30.15 "HgN/A
Weather by CustomWeather, © 2015

See weather overviewHow to use our weather pages